Total_Precipitation_Accumulation
1.63 1.63 1.51 1.46 1.32 1.45 1.73 1.93 1.89 2.04 2.20 2.10 1.82 1.67 1.54 1.41 1.34 1.33 1.52 1.73 1.62 1.67 1.93 2.03 1.96 1.83 1.78 1.61 1.41 1.29 1.25 1.17 0.98 0.73 0.58 0.55 0.50 0.38 0.31 0.30 0.30 0.29 0.24
1.84 1.85 1.71 1.60 1.35 1.39 1.62 1.86 1.89 2.07 2.06 2.08 1.74 1.61 1.50 1.50 1.40 1.37 1.48 1.67 1.66 1.52 1.63 1.93 2.12 2.17 2.10 1.96 1.72 1.46 1.33 1.25 1.07 0.83 0.64 0.59 0.55 0.48 0.46 0.45 0.39 0.30 0.21
2.10 2.06 1.89 1.61 1.46 1.63 1.72 1.73 1.79 2.17 2.01 1.87 1.68 1.74 1.70 1.63 1.47 1.41 1.46 1.58 1.44 1.40 1.40 1.54 1.82 2.07 2.34 2.35 2.12 1.87 1.59 1.34 1.11 0.87 0.70 0.58 0.51 0.48 0.49 0.48 0.48 0.39 0.25
2.04 2.16 1.84 1.51 1.65 1.83 1.80 1.73 1.78 2.01 2.00 2.08 1.95 1.82 1.72 1.58 1.26 1.23 1.26 1.28 1.36 1.16 1.28 1.52 1.65 1.75 2.19 2.50 2.54 2.48 2.07 1.62 1.23 0.94 0.77 0.64 0.58 0.52 0.45 0.39 0.39 0.41 0.30
1.47 1.50 1.19 1.10 1.33 1.42 1.30 1.26 1.52 1.69 1.71 1.82 1.80 1.58 1.39 1.24 1.08 1.03 1.06 0.93 1.02 1.05 1.09 1.34 1.55 1.61 2.01 2.55 3.00 3.13 2.79 2.23 1.70 1.28 1.08 0.94 0.79 0.63 0.50 0.44 0.40 0.39 0.32
1.03 1.03 0.82 0.80 1.05 1.12 1.08 1.20 1.28 1.30 1.25 1.32 1.21 1.00 0.96 0.83 0.85 0.84 0.75 0.76 0.77 0.77 0.88 1.07 1.33 1.24 1.71 2.30 2.78 3.04 3.03 2.69 2.16 1.78 1.59 1.39 1.20 0.91 0.61 0.47 0.43 0.40 0.33
0.91 0.96 0.82 0.89 1.02 1.03 1.03 1.09 1.11 1.03 0.87 1.03 1.10 0.87 0.70 0.64 0.64 0.59 0.58 0.59 0.54 0.62 0.82 1.00 1.18 1.25 1.21 1.38 1.80 2.21 2.72 2.97 2.63 2.18 1.96 1.77 1.59 1.26 0.88 0.69 0.54 0.43 0.36
0.77 0.82 0.78 0.67 0.71 0.74 0.68 0.72 0.90 0.91 0.79 0.90 1.00 0.92 0.70 0.67 0.59 0.42 0.46 0.48 0.48 0.60 0.75 0.85 1.07 1.24 1.24 1.42 1.16 1.38 2.03 2.58 2.87 2.74 2.40 2.00 1.69 1.38 1.11 0.95 0.74 0.56 0.48
0.53 0.57 0.57 0.57 0.62 0.68 0.67 0.66 0.70 0.74 0.68 0.67 0.81 0.94 0.77 0.57 0.49 0.44 0.43 0.42 0.49 0.63 0.72 0.88 0.95 1.03 1.15 1.37 1.36 1.26 1.54 1.73 2.42 2.94 2.79 2.24 1.65 1.29 1.17 1.17 1.06 0.79 0.65
0.43 0.42 0.43 0.42 0.48 0.58 0.65 0.58 0.57 0.60 0.60 0.52 0.58 0.66 0.68 0.64 0.58 0.47 0.44 0.45 0.50 0.62 0.77 0.86 0.97 1.01 1.05 1.17 1.34 1.30 1.18 1.22 1.63 2.24 2.57 2.44 1.96 1.47 1.24 1.33 1.58 1.46 1.05
0.40 0.37 0.37 0.37 0.38 0.41 0.44 0.46 0.53 0.55 0.56 0.51 0.50 0.56 0.64 0.67 0.67 0.59 0.51 0.49 0.46 0.43 0.58 0.76 0.91 0.97 0.95 1.07 1.31 1.33 1.26 1.16 1.09 1.23 1.66 2.00 2.02 1.75 1.48 1.54 1.99 2.27 2.06
0.42 0.40 0.39 0.40 0.40 0.38 0.40 0.41 0.43 0.46 0.51 0.55 0.54 0.57 0.66 0.71 0.67 0.66 0.59 0.53 0.49 0.44 0.48 0.65 0.91 1.04 1.02 1.04 0.96 0.96 1.00 0.91 0.85 0.86 0.99 1.21 1.48 1.62 1.65 1.77 2.12 2.51 2.74
0.36 0.39 0.42 0.43 0.45 0.44 0.43 0.42 0.42 0.44 0.50 0.57 0.57 0.55 0.57 0.63 0.70 0.72 0.67 0.59 0.60 0.60 0.70 0.73 0.81 0.94 0.92 0.97 0.91 0.77 0.62 0.57 0.55 0.58 0.73 0.91 1.13 1.37 1.53 1.61 1.85 2.17 2.42
0.38 0.41 0.38 0.38 0.39 0.41 0.42 0.45 0.40 0.40 0.49 0.58 0.62 0.70 0.67 0.59 0.75 0.82 0.78 0.78 0.76 0.80 0.95 0.88 0.80 0.80 0.83 0.87 0.77 0.65 0.49 0.44 0.40 0.39 0.44 0.47 0.56 0.69 0.85 0.99 1.17 1.39 1.59
0.44 0.45 0.39 0.38 0.38 0.40 0.44 0.47 0.46 0.50 0.55 0.58 0.66 0.80 0.85 0.80 0.79 0.84 0.90 0.95 1.00 0.97 0.96 0.90 0.80 0.74 0.73 0.71 0.63 0.54 0.42 0.38 0.38 0.35 0.35 0.34 0.37 0.42 0.47 0.51 0.58 0.67 0.74
0.43 0.46 0.47 0.45 0.43 0.43 0.50 0.57 0.56 0.56 0.64 0.72 0.84 0.93 0.97 0.99 0.97 0.89 0.93 0.97 1.01 1.06 1.02 0.85 0.78 0.79 0.71 0.56 0.53 0.47 0.40 0.42 0.39 0.36 0.33 0.31 0.30 0.35 0.39 0.41 0.38 0.41 0.46
0.43 0.44 0.46 0.49 0.48 0.53 0.71 0.89 0.86 0.78 0.83 0.91 0.99 1.10 1.14 1.18 1.17 1.05 0.99 0.96 0.97 1.05 0.99 0.83 0.78 0.80 0.69 0.53 0.47 0.44 0.41 0.40 0.36 0.37 0.33 0.30 0.29 0.30 0.34 0.35 0.35 0.34 0.35
0.43 0.38 0.38 0.41 0.43 0.51 0.66 0.95 1.10 1.11 1.08 1.00 1.06 1.24 1.32 1.27 1.16 1.08 1.06 1.00 0.99 1.08 1.02 0.93 0.90 0.85 0.77 0.67 0.58 0.52 0.44 0.40 0.38 0.41 0.37 0.33 0.30 0.29 0.28 0.28 0.28 0.28 0.29
0.46 0.44 0.44 0.46 0.49 0.50 0.54 0.72 0.94 1.04 1.06 1.02 1.08 1.13 1.15 1.21 1.17 1.09 1.03 0.98 0.97 1.07 1.07 0.98 1.04 1.03 0.92 0.80 0.69 0.58 0.50 0.48 0.41 0.39 0.40 0.37 0.34 0.29 0.27 0.26 0.26 0.26 0.25
0.51 0.50 0.50 0.52 0.52 0.48 0.47 0.59 0.75 0.84 0.89 0.93 0.98 1.01 1.03 1.05 1.10 1.15 1.09 1.03 1.05 1.07 1.08 1.07 1.09 1.22 1.12 0.96 0.80 0.66 0.57 0.52 0.47 0.35 0.36 0.40 0.38 0.33 0.29 0.27 0.25 0.25 0.26
0.57 0.61 0.65 0.62 0.57 0.50 0.47 0.60 0.69 0.66 0.72 0.79 0.79 0.76 0.85 1.01 1.10 1.16 1.07 1.04 1.11 1.10 1.09 1.13 1.15 1.27 1.29 1.14 0.91 0.70 0.61 0.59 0.55 0.49 0.42 0.35 0.33 0.29 0.27 0.28 0.28 0.26 0.24
0.65 0.72 0.76 0.76 0.69 0.54 0.55 0.60 0.61 0.59 0.65 0.70 0.71 0.67 0.67 0.77 0.91 0.99 0.98 0.96 1.01 1.06 1.09 1.12 1.18 1.25 1.31 1.23 1.06 0.90 0.75 0.64 0.59 0.57 0.59 0.52 0.40 0.34 0.28 0.24 0.27 0.28 0.27
0.80 0.83 0.81 0.81 0.77 0.73 0.66 0.56 0.51 0.50 0.56 0.62 0.63 0.60 0.51 0.50 0.66 0.75 0.84 0.88 0.86 0.85 0.92 1.06 1.17 1.18 1.30 1.35 1.28 1.07 0.96 0.84 0.67 0.63 0.68 0.65 0.57 0.46 0.36 0.33 0.37 0.32 0.30
1.02 1.01 0.96 0.94 0.98 0.91 0.81 0.68 0.60 0.51 0.51 0.52 0.54 0.55 0.57 0.56 0.57 0.62 0.72 0.79 0.81 0.79 0.77 0.83 0.96 1.14 1.32 1.48 1.46 1.33 1.22 1.07 0.87 0.76 0.74 0.71 0.64 0.56 0.46 0.40 0.42 0.38 0.35
1.29 1.27 1.21 1.20 1.22 1.24 1.16 0.95 0.83 0.69 0.64 0.63 0.67 0.67 0.65 0.60 0.58 0.53 0.58 0.62 0.66 0.75 0.74 0.74 0.82 1.03 1.22 1.36 1.51 1.45 1.31 1.12 0.93 0.78 0.73 0.68 0.62 0.62 0.57 0.48 0.42 0.43 0.37
1.53 1.51 1.48 1.48 1.45 1.44 1.31 1.01 0.87 0.77 0.80 0.80 0.84 0.80 0.66 0.55 0.48 0.43 0.47 0.53 0.54 0.56 0.67 0.72 0.75 0.85 1.01 1.14 1.29 1.29 1.15 1.09 0.92 0.77 0.65 0.63 0.56 0.61 0.65 0.56 0.47 0.41 0.38